Location: Bratislava
(0.0000°N, 17.1167°E)
Time: 04:51:08
(UTC+01:00)

SL-08 RB Rocket - Pass Details

Date: 24 January 2021
Orbit: 647 x 683 km, 97.8° (Epoch: 06 March)

Event Time Altitude Azimuth Distance (km) Brightness Sun altitude
Rises 19:13:09 0° 156° (SSE) 3,024 7.1 -16.4°
Reaches altitude 10° 19:15:30 10° 149° (SSE) 2,102 6.2 -16.9°
Maximum altitude 19:19:50 42° 78° (ENE) 956 4.0 -17.9°
Enters shadow 19:21:55 26° 25° (NNE) 1,312 4.8 -18.4°
